Weather History for Worland, WY

Change the Weather History Date:

Sunday, July 7, 2013

  Actual Average Record
Temperature  
Mean Temperature 76 °F 71 °F  
Max Temperature 94 °F 88 °F 102 °F (1983)
Min Temperature 57 °F 54 °F 41 °F (1993)
Degree Days  
Heating Degree Days 0 1  
Month to date heating degree days 0 7  
Since 1 June heating degree days 45 100  
Since 1 July heating degree days 0 7  
Cooling Degree Days 11 7  
Month to date cooling degree days 77 42  
Year to date cooling degree days 227 138  
Since 1 June cooling degree days 210 126  
Growing Degree Days 25 (Base 50)    
Moisture  
Dew Point 48 °F    
Average Humidity 48    
Maximum Humidity 80    
Minimum Humidity 15    
Precipitation  
Precipitation T in 0.02 in 0.29 in (1994)
Month to date precipitation 0.02 0.15  
Year to date precipitation 2.80 4.46  
Sea Level Pressure  
Sea Level Pressure 29.85 in    
Wind  
Wind Speed 7 mph (SSE)    
Max Wind Speed 33 mph    
Max Gust Speed 45 mph    
Visibility 10 miles    
Events Rain , Thunderstorm    
T = Trace of Precipitation, MM = Missing Value Source: NWS Daily Summary

Daily Weather History Graph

Daily Weather History Graph

Search for Another Location

Airport:

Trip Planner

Search our weather history database for the weather conditions in past years. The results will help you decide how hot, cold, wet, or windy it might be!

Date:

Astronomy

Jul. 07, 2013 Rise Set
Actual Time 5:36 AM MDT 8:56 PM MDT
Civil Twilight 5:01 AM MDT 9:31 PM MDT
Nautical Twilight 4:14 AM MDT 10:18 PM MDT
Astronomical Twilight 3:17 AM MDT 11:15 PM MDT
Moon 5:17 AM MDT (7/7) 8:19 PM MDT (7/7)
Length of Visible Light 16h 30m
Length of Day
15h 19m
Waning Crescent, 0% of the Moon is Illuminated
Jul 7
Waning Crescent
Jul 8
New
Jul 15
First Quarter
Jul 22
Full
Jul 29
Last Quarter

Hourly Weather History & Observations

Time (MDT) Temp. Dew Point Humidity Pressure Visibility Wind Dir Wind Speed Gust Speed Precip Events Conditions
12:53 AM 68.0 °F 54.0 °F 61% 29.87 in 10.0 mi Variable 3.5 mph - 0.00 in   Partly Cloudy
1:53 AM 66.0 °F 53.1 °F 63% 29.86 in 10.0 mi South 5.8 mph - N/A   Clear
2:53 AM 64.0 °F 53.1 °F 67% 29.84 in 10.0 mi South 3.5 mph - N/A   Clear
3:53 AM 60.1 °F 52.0 °F 75% 29.84 in 10.0 mi North - - N/A   Clear
4:53 AM 57.9 °F 52.0 °F 81% 29.86 in 10.0 mi ESE 6.9 mph - N/A   Clear
5:53 AM 60.1 °F 54.0 °F 80% 29.87 in 10.0 mi SSE 6.9 mph - N/A   Clear
6:53 AM 63.0 °F 53.1 °F 70% 29.88 in 10.0 mi SSE 5.8 mph - N/A   Clear
7:53 AM 68.0 °F 55.0 °F 63% 29.88 in 10.0 mi Calm Calm - N/A   Clear
8:53 AM 73.0 °F 55.9 °F 55% 29.88 in 10.0 mi Calm Calm - N/A   Clear
9:53 AM 78.1 °F 52.0 °F 40% 29.86 in 10.0 mi Variable 3.5 mph - N/A   Clear
10:53 AM 81.0 °F 52.0 °F 36% 29.86 in 10.0 mi North 5.8 mph - N/A   Clear
11:53 AM 87.1 °F 51.1 °F 29% 29.82 in 10.0 mi NNE 6.9 mph - N/A   Clear
12:53 PM 89.1 °F 46.0 °F 22% 29.81 in 10.0 mi Variable 4.6 mph - N/A   Clear
1:53 PM 91.9 °F 39.0 °F 16% 29.79 in 10.0 mi NNE 8.1 mph - N/A   Clear
2:53 PM 93.0 °F 42.1 °F 17% 29.75 in 10.0 mi NE 6.9 mph - N/A   Clear
3:53 PM 88.0 °F 34.0 °F 15% 29.78 in 10.0 mi SSW 19.6 mph 29.9 mph N/A   Mostly Cloudy
4:05 PM 80.6 °F 44.6 °F 28% 29.92 in 9.0 mi SSW 31.1 mph 39.1 mph N/A   Mostly Cloudy
4:15 PM 78.8 °F 48.2 °F 34% 29.92 in 10.0 mi SSE 19.6 mph 41.4 mph 0.00 in Rain , Thunderstorm Light Rain
4:24 PM 80.6 °F 48.2 °F 32% 29.91 in 10.0 mi ESE 15.0 mph 26.5 mph 0.00 in   Scattered Clouds
4:53 PM 82.9 °F 46.0 °F 27% 29.78 in 10.0 mi SE 13.8 mph - 0.00 in   Clear
5:26 PM 80.6 °F 46.4 °F 30% 29.91 in 10.0 mi SW 16.1 mph - N/A   Clear
5:40 PM 80.6 °F 44.6 °F 28% 29.90 in 10.0 mi SW 17.3 mph 26.5 mph N/A   Clear
5:53 PM 84.9 °F 39.9 °F 20% 29.77 in 10.0 mi South 19.6 mph 27.6 mph N/A   Clear
6:53 PM 82.9 °F 46.0 °F 27% 29.78 in 10.0 mi South 5.8 mph - N/A   Clear
7:53 PM 79.0 °F 48.9 °F 35% 29.81 in 10.0 mi NW 5.8 mph - N/A   Clear
8:53 PM 77.0 °F 52.0 °F 42% 29.83 in 10.0 mi NW 11.5 mph 19.6 mph N/A   Clear
9:53 PM 75.0 °F 45.0 °F 34% 29.86 in 10.0 mi NNW 8.1 mph - N/A   Clear
10:53 PM 70.0 °F 46.9 °F 44% 29.87 in 10.0 mi East 3.5 mph - N/A   Clear
11:53 PM 69.1 °F 48.9 °F 49% 29.88 in 10.0 mi SSW 5.8 mph - N/A   Clear